Home   Weather   Rathenow   Past weeks

Flag for Germany Past Weather in Rathenow, Brandenburg, Germany — Yesterday and Last 2 Weeks

Now
25 °F

Passing clouds.


Feels Like: 25 °F
Forecast: 16 / 25 °F
Wind: 2 mph from North

Location: Berlin-Tegel

Current Time: Jan 17, 2017 at 4:06:17 am

Latest Report: Jan 17, 2017 at 3:20 am


Visibility: N/A

Pressure: 30.48 "Hg

Humidity: 93%

Dew Point: 23 °F

Location of RathenowLocation

Past Weather in Rathenow — Graph

°F

Rathenow Temperature Yesterday

Maximum temperature yesterday: 30 °F (at 12:20 am)
Minimum temperature yesterday: 23 °F (at 8:20 am)
Average temperature yesterday: 28 °F

High & Low Weather Summary for the Past Weeks

 TemperatureHumidityPressure
High41 °F (Jan 4, 1:20 am)100% (Jan 2, 2:20 am)30.74 "Hg (Jan 2, 2:20 am)
Low16 °F (Jan 6, 8:50 am)51% (Jan 5, 12:20 pm)29.00 "Hg (Jan 13, 7:50 am)
Average30 °F87%29.99 "Hg
* Reported Jan 2 2:20 am — Jan 17 2:50 am, Rathenow, Weather by CustomWeather, © 2017

Note: Actual official high and low records may vary slightly from our data, if they occured in-between our weather recording intervals... More about our weather records

Advertising

Rathenow Weather History for the Previous 24 Hours

Scroll right to see more
 ConditionsComfort  
Time TempWeatherWind HumidityBarometerVisibility
2:50 am
Tue, Jan 17
25 °FPassing clouds.3 mph93%30.48 "HgN/A
2:20 am23 °FPassing clouds.2 mph93%30.48 "HgN/A
1:50 am21 °FPassing clouds.3 mph100%30.45 "HgN/A
1:20 am23 °FPassing clouds.2 mph100%30.45 "HgN/A
12:50 am23 °FPassing clouds.1 mph100%30.45 "HgN/A
12:20 am25 °FPassing clouds.1 mph93%30.45 "HgN/A
11:50 pm
Mon, Jan 16
25 °FPassing clouds.1 mph93%30.45 "HgN/A
11:20 pm27 °FPassing clouds.2 mph93%30.42 "HgN/A
10:50 pm27 °FPassing clouds.3 mph93%30.42 "HgN/A
10:20 pm28 °FPartly cloudy.5 mph86%30.42 "HgN/A
9:50 pm28 °FPassing clouds.2 mph86%30.42 "HgN/A
9:20 pm28 °FPassing clouds.6 mph86%30.39 "HgN/A
8:50 pm28 °FPassing clouds.2 mph86%30.39 "HgN/A
8:20 pm28 °FPassing clouds.2 mph86%30.39 "HgN/A
7:50 pm28 °FPassing clouds.3 mph86%30.36 "HgN/A
7:20 pm28 °FPassing clouds.2 mph86%30.36 "HgN/A
6:50 pm28 °FPassing clouds.3 mph86%30.36 "HgN/A
6:20 pm30 °FPassing clouds.6 mph80%30.33 "HgN/A
5:50 pm30 °FPassing clouds.6 mph86%30.33 "HgN/A
5:20 pm30 °FPartly cloudy.5 mph86%30.33 "HgN/A
4:50 pm30 °FPartly cloudy.5 mph86%30.30 "HgN/A
4:20 pm30 °FBroken clouds.5 mph86%30.30 "HgN/A
3:50 pm30 °FScattered clouds.3 mph86%30.30 "HgN/A
3:20 pm30 °FScattered clouds.6 mph86%30.30 "HgN/A
2:50 pm30 °FScattered clouds.7 mph86%30.27 "HgN/A
2:20 pm28 °FPartly sunny.8 mph93%30.27 "HgN/A
1:50 pm28 °FPartly sunny.6 mph93%30.27 "HgN/A
1:20 pm28 °FPartly sunny.5 mph86%30.27 "HgN/A
12:50 pm28 °FPartly sunny.8 mph86%30.27 "HgN/A
12:20 pm28 °FPartly sunny.6 mph86%30.27 "HgN/A
11:50 am28 °FPartly sunny.6 mph93%30.27 "HgN/A
11:20 am27 °FScattered clouds.6 mph93%30.27 "HgN/A
10:50 am25 °FPartly sunny.5 mph100%30.27 "Hg4 mi
10:20 am25 °FPartly sunny.3 mph100%30.24 "Hg4 mi
9:50 am25 °FIce fog.6 mph100%30.24 "Hg2 mi
9:20 am25 °FPartly sunny.5 mph93%30.24 "Hg5 mi
8:50 am25 °FPartly sunny.3 mph100%30.24 "Hg5 mi
8:20 am23 °FPassing clouds.3 mph93%30.21 "HgN/A
7:50 am25 °FPassing clouds.2 mph100%30.21 "HgN/A
7:20 am25 °FClear.2 mph100%30.21 "Hg10 mi
6:50 am27 °FPassing clouds.5 mph93%30.18 "HgN/A
6:20 am27 °FPassing clouds.3 mph93%30.18 "HgN/A
5:50 am28 °FPassing clouds.5 mph86%30.18 "HgN/A
5:20 am28 °FPassing clouds.6 mph86%30.18 "HgN/A
4:50 am30 °FPassing clouds.6 mph86%30.15 "HgN/A
4:20 am30 °FPassing clouds.6 mph86%30.15 "HgN/A
Weather by CustomWeather, © 2017

See weather overviewHow to use our weather pages